Location: Newark
(48.5156°N, 1.8989°W)
Time: 08:10:34
(UTC+00:00)

Transit 4A - Pass Details

Date: 23 November 2019
Orbit: 870 x 975 km, 66.8° (Epoch: 11 December)

Event Time Altitude Azimuth Distance (km) Brightness Sun altitude
Exits shadow 04:12:28 26° 7° (N) 1,693 9.3 -31.7°
Maximum altitude 04:14:13 30° 37° (NE) 1,535 9.3 -31.4°
Drops below altitude 10° 04:19:19 10° 98° (E) 2,527 11.0 -30.6°
Sets 04:22:05 0° 109° (ESE) 3,456 11.9 -30.1°
